Location: Unspecified
(49.2170°N, 0.0000°E)
Time: 18:34:53
(UTC+00:00)

Transit 2A - Pass Details

Date: 24 June 2019
Orbit: 597 x 962 km, 66.7° (Epoch: 19 August)

Event Time Altitude Azimuth Distance (km) Brightness Sun altitude
Rises 09:43:27 0° 315° (NW) 3,418 9.0 52.5°
Reaches altitude 10° 09:46:35 10° 300° (WNW) 2,408 8.3 52.9°
Maximum altitude 09:50:30 20° 254° (WSW) 1,716 7.8 53.5°
Drops below altitude 10° 09:54:08 10° 208° (SSW) 2,217 8.6 54.0°
Sets 09:56:54 0° 192° (SSW) 3,066 9.3 54.4°
